Regional Weather Roundup
Issued by NWS

Home | Current Version | Previous Version | Graphics & Text | Print | Product List | Glossary Off
Versions: 1 2 3 4 5 6 7 8 9 10 11 12 13 14 15 16 17 18 19 20 21 22 23 24 25 26 27 28 29 30 31 32 33 34 35 36 37 38 39 40 41 42 43 44 45 46 47 48 49 50

000
ASUS43 KLSX 301657
RWRMO

WEATHER SUMMARY FOR MISSOURI
NATIONAL WEATHER SERVICE SPRINGFIELD MO
1200 PM CDT SAT JUL 30 2016

NOTE: "FAIR" INDICATES FEW OR NO CLOUDS BELOW 12,000 FEET WITH NO
       SIGNIFICANT WEATHER AND/OR OBSTRUCTIONS TO VISIBILITY.
       CURRENT SKY AND/OR WEATHER CONDITIONS ARE NOT AVAILABLE FOR
       CHILLICOTHE AND FARMINGTON.

MOZ001>031-035>038-043-044-053-054-301800-
...NORTHERN AND WESTERN MISSOURI...

CITY           SKY/WX    TMP DP  RH WIND       PRES   REMARKS
KANSAS CTY INT MOSUNNY   78  61  55 CALM      30.05S
LEE`S SUMMIT   MOSUNNY   80  67  64 CALM      30.05S
ST JOSEPH      SUNNY     79  62  56 CALM      30.03F

$$
MOZ066>068-077>081-088>096-101>105-301800-
...SOUTHWEST MISSOURI...

CITY           SKY/WX    TMP DP  RH WIND       PRES   REMARKS
SPRINGFIELD    MOSUNNY   83  65  54 SW5       30.04R
JOPLIN         MOSUNNY   87  71  58 CALM      30.04R HX  93
BRANSON        PTSUNNY   82  72  69 CALM      30.06S

$$
MOZ032>034-039>042-045>050-055>058-069>072-301800-
...CENTRAL MISSOURI...

CITY           SKY/WX    TMP DP  RH WIND       PRES   REMARKS
COLUMBIA       NOT AVBL
JEFFERSON CITY SUNNY     81  66  60 N5        30.01S
ROLLA          PTSUNNY   79  67  66 W7        30.03R
SEDALIA        PTSUNNY   81  66  60 W3        30.05S

$$
MOZ051-052-059>065-301800-
...EAST CENTRAL MISSOURI...

CITY           SKY/WX    TMP DP  RH WIND       PRES   REMARKS
ST LOUIS INTL  MOSUNNY   82  64  54 NW8       30.00S

$$
MOZ072>076-082>087-097>100-106>115-301800-
...SOUTH CENTRAL AND SOUTHEAST MISSOURI...

CITY           SKY/WX    TMP DP  RH WIND       PRES   REMARKS
CAPE GIRARDEAU SUNNY     80  71  74 VRB3      30.00S
POPLAR BLUFF   PTSUNNY   80  73  79 CALM      30.01S
WEST PLAINS    PTSUNNY   82  67  60 SW5       30.06S

$$



USA.gov is the U.S. government's official web portal to all federal, state and local government web resources and services.